Weather observations for the past three days for
Shemya, Eareckson AFB
Imperial (Metric)
Date Time (hdt) Wind (mph) Vis. (mi.) Weather Sky Cond. Temperature (ºF) Relative Humidity Wind Chill (°F) Heat Index (°F) Pressure Precipitation (in)
Air Dwpt 6 hour altimeter (in) sea level (mb) 1 hr 3 hr 6 hr
Max. Min.
21 09:55 Calm 9.00 NULL NULL 48.4 47.5 97% 29.63 1003.7
21 08:55 NW 14 6.00 Fog/Mist NULL 47.8 46.9 48.7 47.3 97% 43 29.63 1003.7
21 07:55 NW 13 9.00 NULL NULL 47.7 46.8 97% 43 29.63 1003.7
21 06:55 NW 16 9.00 NULL NULL 47.7 46.8 97% 42 29.62 1003.4
21 05:55 NW 13 8.00 NULL NULL 48 47.5 98% 43 29.63 1003.7
21 04:55 NW 14 4.00 Fog/Mist NULL 48.2 47.8 99% 43 29.63 1003.7
21 03:55 NW 13 4.00 Light Rain Fog/Mist NULL 48.4 47.8 98% 44 29.63 1003.7
21 02:55 Calm 9.00 NULL NULL 48.6 48 49.8 48.4 98% 29.63 1003.7
21 01:55 NW 13 9.00 NULL NULL 48.7 48.2 98% 44 29.63 1003.7
21 00:55 NW 14 10.00 NULL NULL 48.7 48.2 98% 44 29.62 1003.4
20 23:55 Calm 8.00 NULL NULL 48.9 47.8 96% 29.61 1003.0
20 22:55 Calm 8.00 NULL NULL 49.3 47.8 95% 29.6 1002.7
20 21:55 NW 15 9.00 NULL NULL 49.5 48.4 96% 44 29.59 1002.4
20 20:55 NW 16 8.00 NULL NULL 49.8 48.4 52 49.6 95% 45 29.58 1002.0
20 19:55 N 20 10.00 NULL NULL 50.5 48.4 92% 29.58 1002.0
20 18:55 Calm 10.00 NULL NULL 51.1 48.9 92% 29.58 1002.0
20 17:55 Calm 10.00 NULL NULL 50 48 93% 29.57 1001.7
20 16:55 N 21 7.00 Overcast and Breezy BKN006 OVC012 51.3 49.1 92% 29.56 1001.3
20 15:56 N 23 7.00 Overcast and Breezy OVC005 50.7 48.7 93% 29.55 1000.9
20 14:56 N 20 5.00 Fog/Mist OVC003 50.4 49.5 50.4 48.7 97% 29.55 1000.9 0.01
20 13:57 N 22 4.00 Fog/Mist and Breezy OVC003 49.8 49.3 98% 44 29.55 1000.7
20 12:55 NW 17 2.00 Light Drizzle Fog/Mist OVC003 49.5 48.9 98% 44 29.53 1000.3
20 11:55 NW 18 2.00 Light Drizzle Fog/Mist OVC002 49.6 49.1 98% 44 29.53 1000.3 0.01
20 10:57 NW 16 2.00 Light Drizzle Fog/Mist OVC002 49.1 48.6 98% 44 29.51 999.4
20 09:55 NW 15 2.00 Light Drizzle Fog/Mist OVC002 49.1 48.6 98% 44 29.51 999.4
20 08:58 SW 15 4.00 Light Rain Fog/Mist OVC002 48.7 48.2 48.7 48.2 98% 44 29.53 1000.3 0.02
20 07:59 NW 17 10.00 Light Rain OVC002 48.6 48.2 99% 43 29.48 998.6
20 06:59 NW 15 1.00 Fog/Mist VV001 48.6 48.2 99% 43 29.51 999.6
20 05:58 NW 16 3.00 Fog/Mist OVC004 48.6 48.2 99% 43 29.51 999.6 0.02
20 04:57 N 16 3.00 Light Rain Fog/Mist OVC003 48.6 48.2 99% 43 29.47 998.3
20 03:58 NW 14 0.38 Fog VV001 48.6 48 98% 44 29.46 997.9
20 02:59 N 14 0.38 Fog VV001 48.6 48.2 50.5 48.6 99% 44 29.46 997.9 0.1
20 01:59 NW 13 0.38 Light Drizzle Fog/Mist VV001 48.6 48.2 99% 44 29.46 997.9
20 00:55 Calm 2.25 Light Rain Fog/Mist NULL 48.9 48.6 99% 29.46 997.9
19 23:55 NW 8 5.00 Fog/Mist NULL 48.9 48.4 98% 46 29.45 997.6
19 22:55 Calm 8.00 NULL NULL 48.9 48.4 98% 29.44 997.3
19 21:55 Calm 6.00 Fog/Mist NULL 50.2 49.6 98% 29.43 996.9
19 19:55 W 7 8.00 NULL NULL 51.1 50.5 98% 29.43 996.9
19 18:55 SE 3 0.63 Light Rain Fog/Mist NULL 48.9 48.6 99% 29.42 996.6
19 17:55 Calm 10.00 NULL NULL 49.5 48.9 98% 29.42 996.6
19 16:55 SE 7 1.00 Fog/Mist OVC003 50.4 50 99% 29.43 997.0
19 15:57 SE 8 0.25 Fog VV001 51.1 50.7 99% 29.44 997.3
19 14:55 SE 8 0.13 Fog VV001 50 49.6 50.9 48 99% 47 29.44 997.3
19 13:55 SE 7 0.13 Fog VV001 49.8 49.5 99% 47 29.44 997.3
19 12:58 S 7 0.13 Fog VV001 49.1 48.7 99% 47 29.44 997.3
19 11:55 S 12 0.13 Fog VV001 48.9 48.6 99% 45 29.45 997.6
19 10:55 S 13 0.13 Fog VV001 48.4 48 99% 44 29.45 997.6
19 09:55 S 13 0.13 Light Rain Fog VV001 48.2 47.8 99% 43 29.46 997.9
19 08:57 S 15 0.13 Light Rain Fog VV001 48.2 47.8 48.6 47.8 99% 43 29.46 997.9
19 07:59 S 13 0.13 Fog VV001 48 47.7 99% 43 29.45 997.6
19 06:59 S 17 0.13 Fog VV001 48.2 47.8 99% 42 29.46 997.9
19 05:59 S 12 0.25 Fog VV001 48 47.7 99% 44 29.46 997.9
19 04:56 S 16 0.25 Fog VV001 47.8 47.5 99% 42 29.47 998.3
19 03:59 S 14 0.25 Fog VV001 48.4 48 99% 43 29.47 998.3
19 02:59 S 8 0.13 Fog VV001 48.2 47.8 49.6 47.5 99% 45 29.48 998.6 0.01
19 01:57 S 12 0.25 Fog VV001 48 47.7 99% 44 29.49 999.0
19 00:55 Calm 0.88 Fog/Mist NULL 47.7 47.3 99% 29.49 999.0
18 23:55 Calm 0.50 Fog NULL 47.8 47.5 99% 29.49 999.0
18 22:55 E 9 1.88 Fog/Mist NULL 48.4 48 99% 45 29.51 999.6
18 21:55 Calm 2.50 Fog/Mist NULL 49.5 49.1 99% 29.5 999.3
18 20:55 Calm 0.88 Fog/Mist NULL 49.3 48.7 52.2 48.7 98% 29.53 1000.3
18 19:55 E 9 5.00 Fog/Mist NULL 49.8 48.9 97% 47 29.55 1001.0
18 18:55 Calm 10.00 NULL NULL 51.8 50.2 94% 29.56 1001.3
18 17:55 Calm 10.00 NULL NULL 50.5 49.1 95% 29.58 1002.0
18 16:55 E 8 5.00 Fog/Mist OVC010 50.4 49.5 97% 29.59 1002.4
18 15:55 SE 8 0.25 Fog VV002 50 49.5 98% 47 29.62 1003.2
18 14:55 SE 10 0.25 Fog VV002 49.3 48.9 50.4 48 99% 45 29.63 1003.5 0.02
18 12:55 E 12 0.25 Fog VV001 50 49.6 99% 46 29.63 1003.7
18 11:55 E 15 0.25 Fog VV001 48.7 48.4 99% 44 29.63 1003.8 0.03
18 10:57 E 20 1.00 Fog/Mist OVC003 48 47.5 98% 42 29.63 1003.8
Date Time (hdt) Wind (mph) Vis. (mi.) Weather Sky Cond. Air Dwpt Max. Min. Relative Humidity Wind Chill (°F) Heat Index (°F) altimeter (in) sea level (mb) 1 hr 3 hr 6 hr
6 hour
Temperature (ºF) Pressure Precipitation (in)